Location: Newark
(30.1000°N, 109.4667°E)
Time: 00:29:47
(UTC+00:00)

Vanguard 2 Rocket - Pass Details

Date: 22 February 2020
Orbit: 554 x 3326 km, 32.9° (Epoch: 08 April)

Event Time Altitude Azimuth Distance (km) Brightness Sun altitude
Rises 11:44:07 0° 240° (WSW) 7,293 12.7 -15.6°
Reaches altitude 10° 11:49:05 10° 239° (WSW) 6,272 12.1 -16.6°
Maximum altitude 12:08:57 76° 158° (SSE) 2,793 9.2 -20.9°
Enters shadow 12:17:30 30° 79° (E) 3,392 9.2 -22.8°
